Kuchera_Ratio
0.0 0.0 0.0 0.0 0.0 0.0 0.0 0.0 0.0 0.0 0.0 0.0 0.0 0.0 0.0 0.0 0.0 0.0 0.0 0.0 0.0 0.0 0.0 0.0 0.0 0.0 0.0 0.0 0.1 0.9 2.0 3.4 4.5 5.0 5.3 5.8 7.0 8.1 9.0 10.1 11.1 11.3
0.0 0.0 0.0 0.0 0.0 0.0 0.0 0.0 0.0 0.0 0.0 0.0 0.0 0.0 0.0 0.0 0.0 0.0 0.0 0.0 0.0 0.0 0.0 0.0 0.0 0.0 0.0 0.1 0.6 1.5 2.8 4.1 5.1 5.6 5.9 6.6 8.0 8.8 9.7 10.6 11.2 11.5
0.0 0.0 0.0 0.0 0.0 0.0 0.0 0.0 0.0 0.0 0.0 0.0 0.0 0.0 0.0 0.0 0.0 0.0 0.0 0.0 0.0 0.0 0.0 0.0 0.0 0.0 0.1 0.6 1.3 2.2 3.8 5.0 5.5 6.1 6.5 7.5 8.7 9.4 10.3 11.2 11.3 11.5
0.0 0.0 0.0 0.0 0.0 0.0 0.0 0.0 0.0 0.0 0.0 0.0 0.0 0.0 0.0 0.0 0.0 0.0 0.0 0.0 0.0 0.0 0.0 0.0 0.0 0.3 0.6 1.1 1.9 3.0 4.4 5.4 6.0 6.7 7.3 8.2 9.6 10.1 10.8 11.7 11.5 11.5
0.0 0.0 0.0 0.0 0.0 0.0 0.0 0.0 0.0 0.0 0.0 0.0 0.0 0.0 0.0 0.0 0.0 0.0 0.0 0.0 0.0 0.0 0.0 0.1 0.3 0.6 1.2 1.6 2.5 3.9 5.1 6.0 6.6 7.6 8.5 9.2 10.5 11.1 11.5 12.0 11.6 11.5
0.0 0.0 0.0 0.0 0.0 0.0 0.0 0.0 0.0 0.0 0.0 0.0 0.0 0.0 0.0 0.0 0.0 0.0 0.0 0.0 0.0 0.0 0.1 0.5 0.8 1.0 1.6 2.1 3.3 4.7 5.6 6.7 7.6 8.5 9.4 10.1 11.0 11.6 11.8 12.1 11.9 11.7
0.0 0.0 0.0 0.0 0.0 0.0 0.0 0.0 0.0 0.0 0.0 0.0 0.0 0.0 0.0 0.0 0.0 0.0 0.0 0.0 0.0 0.5 0.6 0.9 1.2 1.5 2.0 2.7 4.1 5.6 6.3 7.4 8.4 9.1 10.0 10.5 11.2 11.5 11.8 12.3 12.2 11.8
0.0 0.0 0.0 0.0 0.0 0.0 0.0 0.0 0.0 0.0 0.0 0.0 0.0 0.0 0.0 0.0 0.0 0.0 0.0 0.1 0.4 0.8 1.0 1.3 1.6 1.8 2.5 3.5 5.0 6.2 7.0 8.0 8.8 9.7 10.6 11.0 11.5 11.8 12.1 12.7 12.5 12.0
0.0 0.0 0.0 0.0 0.0 0.0 0.0 0.0 0.0 0.0 0.0 0.0 0.0 0.0 0.0 0.0 0.0 0.0 0.0 0.5 0.8 1.2 1.3 1.6 2.1 2.3 3.0 4.5 5.7 6.6 7.5 8.5 9.5 10.4 11.3 11.5 11.6 12.1 12.4 12.9 12.7 12.2
0.0 0.0 0.0 0.0 0.0 0.0 0.0 0.0 0.0 1.5 2.1 1.4 0.5 0.6 0.8 0.7 0.8 0.8 1.0 1.1 1.2 1.6 1.7 2.0 2.4 2.7 3.8 5.1 6.1 7.1 8.0 8.8 10.0 10.8 11.5 11.8 11.7 12.2 12.6 12.8 12.7 12.5
0.0 0.0 0.0 0.0 0.0 0.0 0.0 0.0 1.1 2.8 4.0 4.1 3.1 2.5 2.3 2.1 2.0 1.8 1.8 1.9 1.8 2.0 2.0 2.3 2.7 3.1 4.3 5.6 6.5 7.5 8.3 8.9 10.2 11.4 11.8 11.8 11.8 12.2 12.7 12.8 12.8 12.9
0.0 0.0 0.0 0.0 0.0 0.0 0.0 0.0 1.1 3.0 4.8 5.6 5.1 4.4 3.9 3.4 3.0 2.6 2.4 2.3 2.3 2.4 2.5 2.7 3.0 3.5 4.6 6.0 7.0 7.8 8.4 9.2 10.7 11.7 11.9 12.0 12.2 12.6 12.9 13.0 13.1 13.4
0.0 0.0 0.0 0.0 0.0 0.0 0.0 0.0 1.2 3.2 5.3 6.3 6.3 6.0 5.3 4.5 3.8 3.5 3.3 3.0 2.8 2.8 3.0 3.1 3.4 4.3 5.7 7.0 7.9 8.4 9.0 10.1 11.3 12.0 12.2 12.3 12.6 12.9 13.2 13.3 13.2 13.5
0.0 0.0 0.0 0.0 0.0 0.0 0.0 1.0 2.1 4.1 6.0 7.1 7.5 7.3 6.4 5.4 4.6 4.2 3.9 3.7 3.6 3.5 3.6 4.0 4.5 5.7 7.0 8.0 8.8 9.3 9.8 10.8 11.6 12.1 12.3 12.4 12.8 13.0 13.1 13.2 13.2 13.5
0.0 0.0 0.0 0.0 0.0 0.3 1.1 2.3 3.5 5.4 7.2 8.3 8.9 8.5 7.5 6.6 5.9 5.3 4.6 4.1 4.1 4.2 4.5 5.1 5.8 7.0 8.3 9.0 9.5 9.7 10.1 11.2 11.8 12.1 12.3 12.3 12.7 13.0 12.9 13.1 13.4 13.6
0.0 0.0 0.0 0.0 0.1 1.1 2.3 3.8 5.3 7.2 8.8 9.6 10.1 9.5 8.4 7.5 6.8 6.3 5.7 5.1 5.0 5.1 5.4 5.9 6.6 8.1 9.3 9.5 9.7 10.0 10.5 11.4 11.6 11.6 12.2 12.4 12.6 13.0 13.0 13.1 13.4 13.7
0.0 0.0 0.0 0.0 0.6 2.3 4.0 5.6 7.0 8.6 9.8 10.5 10.8 10.1 9.1 8.3 7.4 6.6 6.1 5.7 5.6 5.8 5.8 6.5 7.7 9.0 9.8 9.8 10.0 10.7 11.1 11.4 11.8 11.9 12.3 12.7 12.8 12.9 13.1 13.3 13.8 14.3
0.0 0.0 0.0 0.0 1.3 3.3 5.0 6.5 8.0 9.3 9.9 10.7 11.1 10.4 9.4 8.6 7.9 7.0 6.3 6.1 6.3 6.5 6.6 7.4 8.8 9.6 10.1 10.5 10.8 11.2 11.5 11.4 11.7 12.0 11.8 12.2 12.7 12.9 13.4 13.9 14.3 14.9
0.0 0.0 0.0 0.0 1.6 3.8 5.5 7.0 8.5 9.5 9.8 10.3 10.9 10.6 10.0 9.3 8.5 7.6 7.2 7.2 7.1 7.1 7.5 8.5 9.8 10.4 10.5 11.0 11.3 11.6 12.0 11.5 10.8 10.9 11.0 12.0 12.9 13.4 13.8 14.4 14.9 15.9
0.0 0.0 0.0 0.5 2.6 4.9 6.6 8.0 9.5 9.8 9.9 10.1 10.4 10.8 10.6 9.8 9.1 8.3 8.0 8.1 7.8 8.0 9.1 9.9 10.6 11.1 11.0 11.4 12.0 12.2 12.3 12.1 11.2 11.5 12.2 12.7 13.5 14.0 14.4 15.2 16.1 16.7
0.0 0.0 0.0 1.9 4.0 6.2 7.9 9.1 9.3 9.7 10.1 10.6 10.9 11.4 11.0 10.1 9.4 8.9 8.6 8.8 9.0 9.6 10.7 11.1 11.1 11.6 11.9 12.1 12.4 12.5 12.5 12.4 12.2 12.4 12.8 13.3 14.0 14.8 15.5 16.3 16.3 16.2
0.0 0.0 0.1 2.6 4.6 6.6 8.4 9.7 9.8 10.2 10.7 11.4 12.0 12.1 11.7 10.7 10.0 9.7 9.3 9.4 10.2 11.0 11.3 11.5 11.8 12.2 12.4 12.5 12.7 12.9 12.8 12.8 12.8 13.0 13.3 14.1 14.9 15.7 16.2 15.9 15.8 15.8
0.0 0.0 0.8 3.0 4.6 6.3 8.0 9.4 10.9 11.4 11.8 12.2 12.4 12.2 12.0 11.3 10.6 10.3 10.3 10.4 11.1 11.6 11.4 11.8 12.4 12.5 12.6 12.8 13.1 13.3 13.4 13.2 13.3 13.6 14.1 14.9 15.8 16.4 16.0 15.8 15.5 15.4
0.0 0.0 1.1 3.0 4.1 5.5 7.6 9.6 11.1 12.1 12.4 12.6 12.6 12.3 12.0 11.8 11.1 10.7 11.1 11.6 12.0 12.1 12.1 12.4 12.8 12.8 12.8 13.1 13.4 13.6 13.7 13.6 13.8 14.3 15.0 15.7 16.3 16.3 15.9 15.8 15.4 14.2
0.0 0.0 1.4 2.9 4.3 5.8 7.9 10.0 11.0 12.0 12.5 12.8 12.9 12.8 12.4 12.2 12.0 11.7 12.0 12.2 12.4 12.8 13.0 13.1 13.1 13.0 13.1 13.2 13.5 13.8 14.0 13.9 14.2 14.9 15.7 16.3 16.9 17.3 16.0 15.7 15.4 14.6
0.0 0.4 2.0 3.5 5.5 7.2 9.1 11.0 12.0 12.3 12.8 12.9 13.2 13.5 13.2 12.7 12.4 12.4 12.6 12.7 13.0 13.4 13.5 13.4 13.3 13.4 13.4 13.5 13.8 14.2 14.1 14.3 14.7 15.5 16.3 16.9 17.5 17.4 17.6 16.4 15.6 15.6